User: anonymous   Login
Location: Caltech
(34.1382°N, 118.1253°W)
Time: 20:07:44
(UTC-07:00)
Language:

COSMOS 2428 - Orbit

View from above orbital plane
View from above orbital plane
View from above satellite
View from above satellite

Ground track
Ground track

The orbit data is extracted from the following two-line orbital elements,

1 31792U 07029A   15087.87271039  .00000022  00000-0  37479-4 0  9996
2 31792 070.9847 313.3190 0005200 064.8728 016.0936 14.12541754399517
Epoch (UTC): 28 March 2015 20:56:42
Eccentricity: 0.0005200
inclination: 70.9847°
perigee height: 847 km
apogee height: 854 km
right ascension of ascending node: 313.3190°
argument of perigee: 64.8728°
revolutions per day: 14.12541754
mean anomaly at epoch: 16.0936°
orbit number at epoch: 39951

The dashed part of the orbit path shows where the satellite is in the earth's shadow,  

DLR